Date String (YYYY-MM-DD hh:mm:ss) UTC,Instrument flags,absolute air pressure of the measurement (hPa),sample flow rate (lpm),inlet stack bypass flow (lpm),air temperature of the measurement (°C),ambient temperature measured by the external sensor (°C),aerosol sample conditioner tube jacket temperature (°C),OPC LED temperature (°C),internal box temperature (°C),relative humidity of the measurement (%),span deviation,mass concentration of particles derived from Lorenz-Mie calculation of OPC scattering (μg/m³),mass concentration of particles derived from Lorenz-Mie calculation of OPC scattering (μg/m³),mass concentration of particles derived from Lorenz-Mie calculation of OPC scattering (μg/m³)
DateTimeUTC,F1_M11,P_M11,Q1_M11,Q2_M11,T1_M11,T2_M11,T3_M11,T4_M11,T5_M11,U1_M11,ZSPAN_M11,X0_M11,X2_M11,X1_M11
2024-05-16 23:00:00,SystemResetWarning,0823.1,5.00,000.00,023.9,023.0,000.0,032.0,025.6,019.8,0000.0,0012.36,0002.95,0002.17
2024-05-16 23:01:00,SystemResetWarning,0823.1,4.99,000.00,024.0,023.3,000.0,032.0,025.8,020.3,0000.0,0012.24,0002.98,0002.17
2024-05-16 23:02:00,SystemResetWarning,0823.1,4.99,000.00,024.0,023.5,000.0,032.0,026.0,020.3,0000.0,0012.28,0002.99,0002.16
2024-05-16 23:03:00,SystemResetWarning,0823.0,4.99,000.00,024.1,023.7,000.0,032.1,026.1,020.4,0000.0,0012.91,0002.98,0002.16
2024-05-16 23:04:00,SystemResetWarning,0823.1,5.00,000.00,024.2,023.9,000.0,032.1,026.2,021.4,0000.0,0013.58,0002.99,0002.16
2024-05-16 23:05:00,SystemResetWarning,0823.0,5.00,000.00,024.3,024.0,000.0,032.2,026.3,021.5,0000.0,0013.26,0002.97,0002.17
2024-05-16 23:06:00,SystemResetWarning,0823.0,4.99,000.00,024.4,023.7,000.0,032.2,026.1,020.9,0000.0,0012.49,0002.98,0002.17
2024-05-16 23:07:00,SystemResetWarning,0822.9,5.00,000.00,024.1,021.7,000.0,032.3,025.0,020.2,0000.0,0012.07,0003.02,0002.18
2024-05-16 23:08:00,SystemResetWarning,0822.9,5.01,000.00,023.7,020.9,000.0,032.3,024.5,021.0,0000.0,0011.99,0003.09,0002.18
2024-05-16 23:09:00,SystemResetWarning,0822.9,5.02,000.00,023.6,021.3,000.0,032.3,024.7,020.9,0000.0,0011.50,0003.07,0002.17
2024-05-16 23:10:00,SystemResetWarning,0822.9,4.99,000.00,023.6,021.7,000.0,032.2,025.0,020.4,0000.0,0011.96,0003.09,0002.18
2024-05-16 23:11:00,SystemResetWarning,0822.8,4.99,000.00,023.7,022.1,000.0,032.1,025.2,020.2,0000.0,0011.47,0003.08,0002.18
2024-05-16 23:12:00,SystemResetWarning,0822.9,5.01,000.00,023.8,022.5,000.0,032.1,025.5,020.4,0000.0,0011.24,0003.07,0002.16
2024-05-16 23:13:00,SystemResetWarning,0822.9,5.02,000.00,023.9,022.8,000.0,032.1,025.6,020.5,0000.0,0011.83,0003.12,0002.16
2024-05-16 23:14:00,SystemResetWarning,0822.9,5.00,000.00,024.0,023.1,000.0,032.1,025.8,020.9,0000.0,0011.87,0003.12,0002.15
2024-05-16 23:15:00,SystemResetWarning,0822.9,4.99,000.00,024.0,023.4,000.0,032.1,025.9,021.1,0000.0,0010.79,0003.15,0002.16
2024-05-16 23:16:00,SystemResetWarning,0822.9,4.99,000.00,024.1,023.6,000.0,032.1,026.0,020.7,0000.0,0010.23,0003.17,0002.16
2024-05-16 23:17:00,SystemResetWarning,0822.8,5.00,000.00,024.2,023.8,000.0,032.2,026.2,020.5,0000.0,0010.24,0003.16,0002.16
2024-05-16 23:18:00,SystemResetWarning,0822.9,5.01,000.00,024.3,023.9,000.0,032.2,026.3,021.0,0000.0,0009.86,0003.15,0002.17
2024-05-16 23:19:00,SystemResetWarning,0822.9,5.00,000.00,024.4,024.1,000.0,032.2,026.4,019.6,0000.0,0009.99,0003.16,0002.18
2024-05-16 23:20:00,SystemResetWarning,0822.9,4.98,000.00,024.4,023.5,000.0,032.3,026.0,019.0,0000.0,0009.90,0003.18,0002.18
2024-05-16 23:21:00,SystemResetWarning,0822.8,5.00,000.00,024.1,021.5,000.0,032.4,024.9,019.6,0000.0,0009.60,0003.19,0002.18
2024-05-16 23:22:00,SystemResetWarning,0822.8,5.01,000.00,023.7,020.9,000.0,032.4,024.5,020.7,0000.0,0009.02,0003.16,0002.20
2024-05-16 23:23:00,SystemResetWarning,0823.1,5.01,000.00,023.7,021.4,000.0,032.3,024.8,019.9,0000.0,0008.47,0003.16,0002.20
2024-05-16 23:24:00,SystemResetWarning,0823.0,4.99,000.00,023.7,021.8,000.0,032.2,025.0,020.6,0000.0,0007.98,0003.14,0002.20
2024-05-16 23:25:00,SystemResetWarning,0823.2,5.00,000.00,023.7,022.2,000.0,032.1,025.3,020.0,0000.0,0007.59,0003.12,0002.21
2024-05-16 23:26:00,SystemResetWarning,0823.0,5.01,000.00,023.8,022.6,000.0,032.1,025.5,019.9,0000.0,0007.60,0003.09,0002.21
2024-05-16 23:27:00,SystemResetWarning,0823.2,5.01,000.00,023.9,022.9,000.0,032.1,025.6,019.9,0000.0,0007.89,0003.06,0002.21
2024-05-16 23:28:00,SystemResetWarning,0823.2,5.00,000.00,024.0,023.2,000.0,032.1,025.8,020.7,0000.0,0008.29,0003.09,0002.21
2024-05-16 23:29:00,SystemResetWarning,0823.0,5.00,000.00,024.1,023.4,000.0,032.1,025.9,020.1,0000.0,0008.36,0003.09,0002.20
2024-05-16 23:30:00,SystemResetWarning,0823.2,5.00,000.00,024.2,023.6,000.0,032.2,026.1,019.9,0000.0,0007.64,0003.03,0002.21
2024-05-16 23:31:00,SystemResetWarning,0823.3,5.00,000.00,024.2,023.8,000.0,032.2,026.2,019.8,0000.0,0007.58,0003.01,0002.21
2024-05-16 23:32:00,SystemResetWarning,0823.1,5.01,000.00,024.3,024.0,000.0,032.2,026.3,019.6,0000.0,0007.57,0003.00,0002.21
2024-05-16 23:33:00,SystemResetWarning,0823.2,5.00,000.00,024.4,023.9,000.0,032.3,026.3,020.1,0000.0,0008.10,0002.97,0002.19
2024-05-16 23:34:00,SystemResetWarning,0822.9,4.99,000.00,024.2,022.1,000.0,032.4,025.2,020.4,0000.0,0008.33,0003.03,0002.19
2024-05-16 23:35:00,SystemResetWarning,0822.7,5.01,000.00,023.8,020.8,000.0,032.4,024.5,021.9,0000.0,0008.27,0003.00,0002.20
2024-05-16 23:36:00,SystemResetWarning,0822.8,5.02,000.00,023.7,021.2,000.0,032.3,024.7,022.2,0000.0,0008.48,0003.04,0002.21
2024-05-16 23:37:00,SystemResetWarning,0822.8,4.98,000.00,023.7,021.6,000.0,032.2,024.9,021.5,0000.0,0009.07,0003.03,0002.21
2024-05-16 23:38:00,SystemResetWarning,0822.8,4.99,000.00,023.7,022.0,000.0,032.1,025.2,020.8,0000.0,0009.05,0003.07,0002.21
2024-05-16 23:39:00,SystemResetWarning,0822.8,5.01,000.00,023.8,022.4,000.0,032.1,025.4,021.2,0000.0,0008.75,0003.07,0002.21
2024-05-16 23:40:00,SystemResetWarning,0822.8,5.01,000.00,023.9,022.8,000.0,032.1,025.6,020.8,0000.0,0009.04,0003.11,0002.21
2024-05-16 23:41:00,SystemResetWarning,0822.8,5.00,000.00,023.9,023.1,000.0,032.1,025.7,021.9,0000.0,0009.31,0003.11,0002.20
2024-05-16 23:42:00,SystemResetWarning,0822.8,5.00,000.00,024.0,023.3,000.0,032.1,025.9,021.1,0000.0,0009.19,0003.09,0002.19
2024-05-16 23:43:00,SystemResetWarning,0822.8,5.00,000.00,024.1,023.5,000.0,032.1,026.0,021.3,0000.0,0009.25,0003.09,0002.17
2024-05-16 23:44:00,SystemResetWarning,0822.7,5.00,000.00,024.2,023.7,000.0,032.2,026.1,021.1,0000.0,0009.50,0003.10,0002.17
2024-05-16 23:45:00,SystemResetWarning,0822.9,5.00,000.00,024.3,023.9,000.0,032.2,026.3,021.0,0000.0,0009.36,0003.10,0002.17
2024-05-16 23:46:00,SystemResetWarning,0822.9,5.00,000.00,024.4,024.0,000.0,032.3,026.3,019.5,0000.0,0009.17,0003.09,0002.16
2024-05-16 23:47:00,SystemResetWarning,0822.8,4.99,000.00,024.3,022.8,000.0,032.4,025.6,019.6,0000.0,0009.15,0003.12,0002.17
2024-05-16 23:48:00,SystemResetWarning,0822.7,5.01,000.00,023.9,021.0,000.0,032.4,024.6,020.7,0000.0,0008.36,0003.12,0002.17
2024-05-16 23:49:00,SystemResetWarning,0822.9,5.02,000.00,023.7,021.0,000.0,032.4,024.6,020.8,0000.0,0008.33,0003.16,0002.19
2024-05-16 23:50:00,SystemResetWarning,0822.7,4.99,000.00,023.6,021.5,000.0,032.2,024.8,020.4,0000.0,0009.18,0003.19,0002.19
2024-05-16 23:51:00,SystemResetWarning,0822.7,4.99,000.00,023.7,021.9,000.0,032.1,025.1,020.7,0000.0,0010.88,0003.24,0002.21
2024-05-16 23:52:00,SystemResetWarning,0822.8,5.01,000.00,023.7,022.3,000.0,032.1,025.3,020.2,0000.0,0013.53,0003.28,0002.23
2024-05-16 23:53:00,SystemResetWarning,0822.7,5.01,000.00,023.8,022.6,000.0,032.1,025.5,020.4,0000.0,0013.69,0003.29,0002.26
2024-05-16 23:54:00,SystemResetWarning,0822.7,5.00,000.00,023.9,022.9,000.0,032.1,025.6,021.3,0000.0,0014.02,0003.34,0002.28
2024-05-16 23:55:00,SystemResetWarning,0822.8,5.00,000.00,024.0,023.2,000.0,032.1,025.8,020.4,0000.0,0013.93,0003.36,0002.31
2024-05-16 23:56:00,SystemResetWarning,0822.8,5.00,000.00,024.1,023.4,000.0,032.1,026.0,019.4,0000.0,0013.91,0003.39,0002.32
2024-05-16 23:57:00,SystemResetWarning,0822.8,4.99,000.00,024.1,023.6,000.0,032.1,026.1,019.4,0000.0,0013.83,0003.38,0002.34
2024-05-16 23:58:00,SystemResetWarning,0822.8,4.99,000.00,024.2,023.8,000.0,032.2,026.2,019.7,0000.0,0014.02,0003.34,0002.34
2024-05-16 23:59:00,SystemResetWarning,0822.8,4.99,000.00,024.3,023.9,000.0,032.2,026.3,019.8,0000.0,0014.09,0003.32,0002.35
